#timestamp,LO_Frequency,Hit,StdDev 
1629662415.7,286047002.2,N
1629662435.6,286047002.3,N
1629662455.4,286047002.7,N
1629662475.2,286047002.5,N
1629662495.1,286046999.8,N
1629662496.0,286046999.8,N
1629662515.8,286047002.6,N
1629662535.7,286047002.6,N
1629662555.5,286047002.6,N
1629662575.3,286047002.6,N
1629662595.2,286047002.4,N
1629662615.0,286047002.4,N
1629662615.9,286047002.4,N
1629662635.7,286047002.5,N
1629662655.6,286047002.2,N
1629662675.4,286047002.2,N
1629662695.3,286046999.8,N
1629662715.1,286047001.6,N
1629662735.8,286047002.5,N
1629662755.7,286047002.3,N
1629662775.5,286047002.4,N
1629662795.4,286047002.3,N
1629662815.2,286047002.3,N
1629662835.0,286047002.3,N
1629662835.9,286047002.3,N
1629662855.8,286047002.4,N
1629662875.6,286047002.6,Y
1629662895.5,286046998.1,P
1629662915.3,286046998.1,N
1629662935.1,286046998.2,N
1629662955.9,286046998.1,N
1629662975.7,286046998.1,N
1629662995.5,286046998.1,N
1629663015.4,286047000.8,N
1629663035.2,286046998.1,N
1629663055.1,286046998.3,N
1629663056.0,286046998.3,N
1629663075.8,286046998.1,N
1629663095.6,286046998.6,N
1629663115.5,286046998.3,N
1629663135.3,286046998.6,N
1629663155.2,286046998.5,N
1629663175.9,286046998.6,N
1629663195.7,286046998.5,N
1629663215.6,286047000.8,N
1629663235.4,286046998.4,N
1629663255.3,286047000.9,N
1629663275.1,286046998.2,N
1629663276.0,286046998.2,N
1629663295.8,286046998.5,N
1629663315.7,286047001.2,N
1629663335.5,286046998.7,N
1629663355.3,286046998.2,N
1629663375.2,286046998.3,N
1629663395.0,286046998.4,N
1629663395.9,286046998.4,N
1629663415.8,286046998.1,N
1629663435.6,286046998.5,N
1629663455.4,286046998.6,N
1629663475.3,286046998.7,N
1629663495.1,286046998.6,N
1629663515.9,286046998.1,N
1629663535.7,286046998.2,N
1629663555.5,286047001.2,N
1629663575.4,286046998.6,N
1629663595.2,286047001.2,N
1629663615.0,286047001.2,N
1629663616.0,286047001.2,N
1629663635.8,286046998.2,N
1629663655.6,286046998.6,N
1629663675.5,286046998.2,N
1629663695.3,286046998.1,N
1629663715.1,286046998.1,N
1629663735.9,286046998.5,N
1629663755.7,286046998.6,N
1629663775.6,286046998.6,N
1629663795.4,286046998.5,N
1629663815.2,286046998.2,N
1629663835.1,286046998.4,N
1629663836.0,286046998.4,N
1629663855.8,286046998.2,N
1629663875.7,286046998.6,N
1629663895.5,286046998.2,N
1629663915.3,286046998.8,N
1629663935.2,286046998.7,N
1629663955.0,286046998.8,N
1629663955.9,286046998.8,N
1629663975.8,286046998.5,N
1629663995.6,286046998.6,N
1629664015.4,286046998.4,N
1629664035.3,286046998.6,N
1629664055.1,286046998.9,N
1629664075.8,286046998.8,N
1629664095.7,286046998.3,N
1629664115.5,286046998.4,N
1629664135.4,286046998.6,N
1629664155.2,286046998.3,N
1629664175.0,286046998.6,N
1629664175.9,286046998.6,Y
1629664195.8,286046999.8,P
1629664215.6,286047002.8,P
1629664235.5,286047000.2,N
1629664255.3,286047000.4,N
1629664275.1,286047000.1,N
1629664295.9,286047000.6,N
1629664315.7,286047000.9,N
1629664335.5,286046999.9,N
1629664355.4,286047000.0,N
1629664375.2,286047000.3,N
1629664395.1,286047000.3,N
1629664396.0,286047000.3,N
1629664415.8,286047000.2,N
1629664435.6,286046999.9,N
1629664455.5,286047000.1,N
1629664475.3,286046999.9,N
1629664495.2,286047000.9,N
1629664515.9,286047000.6,N
1629664535.7,286047000.2,N
1629664555.6,286046999.9,N
1629664575.4,286047000.3,N
1629664595.3,286047000.3,N
1629664615.1,286046999.9,N
1629664616.0,286046999.9,N
1629664635.8,286047000.2,N
1629664655.7,286047000.4,N
1629664675.5,286047000.0,N
1629664695.3,286047000.6,N
1629664715.2,286047000.3,N
1629664735.0,286046999.9,N
1629664735.9,286046999.9,N
1629664755.8,286047000.5,N
1629664775.6,286047000.7,N
1629664795.4,286047000.9,N
1629664815.3,286047000.9,N
1629664835.1,286047001.0,N
1629664855.9,286047001.0,N
1629664875.7,286047000.4,N
1629664895.5,286047000.5,N
1629664915.4,286047000.3,N
1629664935.2,286047000.5,N
1629664955.0,286047000.3,N
1629664955.9,286047000.3,N
1629664975.8,286047000.4,N
1629664995.6,286047000.0,N
1629665015.5,286047000.0,N
1629665035.3,286047000.2,N
1629665055.1,286047000.2,N
1629665075.9,286047000.2,N
1629665095.7,286047000.5,N
1629665115.6,286047000.3,N
1629665135.4,286047000.3,N
1629665155.2,286047000.0,N
1629665175.1,286047000.2,N
1629665176.0,286047000.2,N
1629665195.8,286047000.4,N
1629665215.6,286047000.1,N
1629665235.5,286047000.0,N
1629665255.3,286047000.5,N
1629665275.2,286047000.3,N
1629665295.0,286047000.1,N
1629665295.9,286047000.1,N
1629665315.7,286047000.3,N
1629665335.6,286047000.9,Y
1629665355.4,286046998.1,P
1629665375.3,286047001.0,N
1629665395.1,286046998.1,N
1629665415.8,286047001.1,N
1629665435.7,286047000.9,N
1629665455.5,286047000.5,N
1629665475.4,286047000.4,N
1629665495.2,286047000.5,N
1629665515.0,286046999.8,N
1629665515.9,286046999.8,N
1629665535.8,286047000.3,N
1629665555.6,286047000.9,N
1629665575.4,286047000.3,N
1629665595.3,286047000.5,N
1629665615.1,286047000.9,N
1629665635.9,286047000.5,N
1629665655.7,286047000.3,N
1629665675.5,286047000.9,N
1629665695.4,286047000.4,N
1629665715.2,286047000.5,N
1629665735.1,286047000.1,N
1629665736.0,286047000.1,N
1629665755.8,286047000.4,N
1629665775.6,286047000.3,N
1629665795.5,286047000.0,N
1629665815.3,286047000.4,N
1629665835.1,286047000.3,N
1629665855.9,286047000.0,N
1629665875.7,286046999.9,N
1629665895.6,286047000.3,N
1629665915.4,286047000.3,N
1629665935.2,286047000.5,N
1629665955.1,286047000.5,N
1629665956.0,286047000.5,N
1629665975.8,286047000.3,N
1629665995.7,286047000.9,Y
